This demonstration page uses our WeatherBlox Daily Observations layout. Learn more.

Left ArrowRight Arrow

30.00354, -91.81873

Hourly Observations for September 8, 2022

Temp ( °F °C ) Dew Point ( °F °C ) Humidity (%) Winds ( mph kmh ) Pressure ( in mb ) Visibility ( mi km ) Precip ( " mm )
12:53 am 00:53 Clear 73 22.8 69 20.6 87 87 N 3 6 29.89 1012 10 16 0.00 0.00
1:53 am 01:53 Clear 72 22.2 69 20.6 91 91 NNW 3 6 29.88 1012 10 16 0.00 0.00
2:53 am 02:53 Clear 71 21.7 69 20.6 93 93 NW 5 7 29.87 1012 10 16 0.00 0.00
3:53 am 03:53 Clear 70 21.1 68 20 93 93 WNW 3 6 29.86 1011 10 16 0.00 0.00
4:53 am 04:53 Clear 70 21.1 68 20 93 93 NW 3 6 29.85 1011 9 14 0.00 0.00
5:53 am 05:53 Clear 70 21.1 68 20 93 93 N 3 6 29.85 1011 8 13 0.00 0.00
6:53 am 06:53 Sunny with Mist and Fog 70 21.1 68 20 93 93 NNW 3 6 29.85 1011 5 8 0.00 0.00
7:53 am 07:53 Sunny 72 22.2 69 20.6 91 91 N 6 9 29.86 1011 9 14 0.00 0.00
8:53 am 08:53 Sunny 75 23.9 70 21.1 84 84 N 7 11 29.86 1011 10 16 0.00 0.00
9:53 am 09:53 Sunny 79 26.1 71 21.7 77 77 NNE 8 13 29.85 1011 10 16 0.00 0.00
10:53 am 10:53 Mostly Sunny 81 27.2 71 21.7 72 72 NE 13 20 29.85 1011 10 16 0.00 0.00
11:53 am 11:53 Sunny 83 28.3 71 21.7 67 67 NNE 7 11 29.84 1011 10 16 0.00 0.00
12:53 pm 12:53 Sunny 86 30 70 21.1 59 59 VRB 6 9 29.81 1010 10 16 0.00 0.00
1:53 pm 13:53 Mostly Sunny 87 30.6 68 20 53 53 N 9 15 29.78 1009 10 16 0.00 0.00
2:53 pm 14:53 Sunny 89 31.7 69 20.6 52 52 N 8 13 29.75 1008 10 16 0.00 0.00
3:29 pm 15:29 Partly Cloudy with Nearby Thunderstorms 87 30.6 67 19.4 51 51 NE 26 43 29.75 1007 10 16 0.00 0.00
3:53 pm 15:53 Mostly Cloudy with Nearby Thunderstorms 75 23.9 67 19.4 76 76 NE 17 28 29.76 1008 9 14 0.01 0.25
4:20 pm 16:20 Mostly Cloudy with Light Rain 73 22.8 68 20 84 84 ENE 13 20 29.76 1008 8 13 0.02 0.51
4:53 pm 16:53 Cloudy with Light Rain 74 23.3 71 21.7 91 91 Calm 29.75 1008 10 16 0.04 1.02
5:53 pm 17:53 Sunny 77 25 70 21.1 79 79 Calm 29.73 1007 10 16 0.01 0.13
6:53 pm 18:53 Sunny 78 25.6 69 20.6 74 74 ENE 5 7 29.74 1007 10 16 0.00 0.00
7:53 pm 19:53 Clear 74 23.3 70 21.1 87 87 Calm 29.74 1007 10 16 0.00 0.00
8:53 pm 20:53 Clear 74 23.3 70 21.1 87 87 Calm 29.75 1007 10 16 0.00 0.00
9:53 pm 21:53 Mostly Clear 73 22.8 70 21.1 90 90 Calm 29.77 1008 10 16 0.00 0.00
10:53 pm 22:53 Mostly Cloudy 71 21.7 69 20.6 93 93 Calm 29.78 1008 9 14 0.00 0.00
11:53 pm 23:53 Cloudy 74 23.3 70 21.1 87 87 N 3 6 29.78 1009 10 16 0.00 0.00

Powered by AerisWeather